Time,TemperatureF,DewpointF,PressureIn,WindDirection,WindDirectionDegrees,WindSpeedMPH,WindSpeedGustMPH,Humidity,HourlyPrecipIn,Conditions,Clouds,dailyrainin,SoftwareType,DateUTC
2013-04-03 00:02:00,31.0,20.0,30.34,NNW,331,4.0,6.0,64,0.00,,,0.00,,2013-04-03 05:02:00,
2013-04-03 00:12:00,31.0,20.0,30.34,NNW,331,4.0,6.0,64,0.00,,,0.00,,2013-04-03 05:12:00,
2013-04-03 00:22:00,31.0,20.0,30.34,NW,316,3.0,8.0,63,0.00,,,0.00,,2013-04-03 05:22:00,
2013-04-03 00:32:00,30.0,20.0,30.34,NW,311,3.0,6.0,65,0.00,,,0.00,,2013-04-03 05:32:00,
2013-04-03 00:42:00,30.0,20.0,30.34,NW,311,3.0,6.0,65,0.00,,,0.00,,2013-04-03 05:42:00,
2013-04-03 00:52:00,31.0,20.0,30.34,NNW,330,3.0,8.0,64,0.00,,,0.00,,2013-04-03 05:52:00,
2013-04-03 01:02:00,30.0,20.0,30.34,NW,306,4.0,7.0,66,0.00,,,0.00,,2013-04-03 06:02:00,
2013-04-03 01:12:00,30.0,20.0,30.34,NW,306,4.0,7.0,66,0.00,,,0.00,,2013-04-03 06:12:00,
2013-04-03 01:22:00,29.0,20.0,30.35,NNW,339,0.0,2.0,69,0.00,,,0.00,,2013-04-03 06:22:00,
2013-04-03 01:32:00,29.0,20.0,30.35,NW,320,2.0,5.0,70,0.00,,,0.00,,2013-04-03 06:32:00,
2013-04-03 01:42:00,29.0,20.0,30.35,NW,320,2.0,5.0,70,0.00,,,0.00,,2013-04-03 06:42:00,
2013-04-03 01:52:00,29.0,20.0,30.35,NW,311,2.0,5.0,69,0.00,,,0.00,,2013-04-03 06:52:00,
2013-04-03 02:02:00,28.0,20.0,30.35,NW,306,1.0,4.0,71,0.00,,,0.00,,2013-04-03 07:02:00,
2013-04-03 02:12:00,28.0,20.0,30.35,NW,306,1.0,4.0,71,0.00,,,0.00,,2013-04-03 07:12:00,
2013-04-03 02:23:00,28.0,20.0,30.35,NW,311,1.0,5.0,72,0.00,,,0.00,,2013-04-03 07:23:00,
2013-04-03 02:32:00,28.0,20.0,30.35,NW,304,2.0,4.0,72,0.00,,,0.00,,2013-04-03 07:32:00,
2013-04-03 02:42:00,28.0,20.0,30.35,NW,304,2.0,4.0,72,0.00,,,0.00,,2013-04-03 07:42:00,
2013-04-03 02:52:00,28.0,20.0,30.35,WNW,301,1.0,5.0,72,0.00,,,0.00,,2013-04-03 07:52:00,
2013-04-03 03:03:00,28.0,20.0,30.36,WNW,295,2.0,4.0,72,0.00,,,0.00,,2013-04-03 08:03:00,
2013-04-03 03:12:00,28.0,20.0,30.36,WNW,295,2.0,4.0,72,0.00,,,0.00,,2013-04-03 08:12:00,
2013-04-03 03:22:00,27.0,20.0,30.36,NW,319,0.0,4.0,73,0.00,,,0.00,,2013-04-03 08:22:00,
2013-04-03 03:32:00,27.0,20.0,30.35,NW,309,1.0,5.0,73,0.00,,,0.00,,2013-04-03 08:32:00,
2013-04-03 03:42:00,27.0,20.0,30.35,NW,309,1.0,5.0,73,0.00,,,0.00,,2013-04-03 08:42:00,
2013-04-03 03:52:00,27.0,20.0,30.35,NW,310,2.0,4.0,74,0.00,,,0.00,,2013-04-03 08:52:00,
2013-04-03 04:02:00,27.0,20.0,30.36,NW,316,2.0,5.0,74,0.00,,,0.00,,2013-04-03 09:02:00,
2013-04-03 04:12:00,27.0,20.0,30.36,NW,316,2.0,5.0,74,0.00,,,0.00,,2013-04-03 09:12:00,
2013-04-03 04:22:00,27.0,20.0,30.36,NNW,333,3.0,6.0,74,0.00,,,0.00,,2013-04-03 09:22:00,
2013-04-03 04:33:00,27.0,19.0,30.37,NNW,335,3.0,6.0,72,0.00,,,0.00,,2013-04-03 09:33:00,
2013-04-03 04:43:00,27.0,19.0,30.37,NNW,335,3.0,6.0,72,0.00,,,0.00,,2013-04-03 09:43:00,
2013-04-03 04:52:00,27.0,20.0,30.37,NNW,329,1.0,4.0,74,0.00,,,0.00,,2013-04-03 09:52:00,
2013-04-03 05:03:00,26.0,19.0,30.37,NNW,329,2.0,5.0,75,0.00,,,0.00,,2013-04-03 10:03:00,
2013-04-03 05:12:00,26.0,19.0,30.37,NNW,329,2.0,5.0,75,0.00,,,0.00,,2013-04-03 10:12:00,
2013-04-03 05:22:00,26.0,19.0,30.37,NW,315,2.0,5.0,75,0.00,,,0.00,,2013-04-03 10:22:00,
2013-04-03 05:33:00,25.0,19.0,30.37,North,355,1.0,4.0,76,0.00,,,0.00,,2013-04-03 10:33:00,
2013-04-03 05:42:00,25.0,19.0,30.37,North,355,1.0,4.0,76,0.00,,,0.00,,2013-04-03 10:42:00,
2013-04-03 05:52:00,25.0,19.0,30.37,North,355,2.0,5.0,77,0.00,,,0.00,,2013-04-03 10:52:00,
2013-04-03 06:02:00,25.0,19.0,30.37,North,350,2.0,6.0,77,0.00,,,0.00,,2013-04-03 11:02:00,
2013-04-03 06:12:00,25.0,19.0,30.37,North,350,2.0,6.0,77,0.00,,,0.00,,2013-04-03 11:12:00,
2013-04-03 06:22:00,25.0,19.0,30.37,NNW,335,2.0,6.0,77,0.00,,,0.00,,2013-04-03 11:22:00,
2013-04-03 06:32:00,24.0,18.0,30.38,North,355,1.0,6.0,79,0.00,,,0.00,,2013-04-03 11:32:00,
2013-04-03 06:42:00,24.0,18.0,30.38,North,355,1.0,6.0,79,0.00,,,0.00,,2013-04-03 11:42:00,
2013-04-03 06:52:00,24.0,18.0,30.39,North,360,3.0,6.0,79,0.00,,,0.00,,2013-04-03 11:52:00,
2013-04-03 07:02:00,24.0,18.0,30.40,North,351,1.0,5.0,79,0.00,,,0.00,,2013-04-03 12:02:00,
2013-04-03 07:13:00,24.0,18.0,30.40,North,351,1.0,5.0,79,0.00,,,0.00,,2013-04-03 12:13:00,
2013-04-03 07:22:00,24.0,19.0,30.40,North,355,1.0,4.0,80,0.00,,,0.00,,2013-04-03 12:22:00,
2013-04-03 07:32:00,25.0,20.0,30.41,North,5,2.0,4.0,80,0.00,,,0.00,,2013-04-03 12:32:00,
2013-04-03 07:42:00,25.0,20.0,30.41,North,5,2.0,4.0,80,0.00,,,0.00,,2013-04-03 12:42:00,
2013-04-03 07:52:00,26.0,21.0,30.43,North,5,1.0,3.0,80,0.00,,,0.00,,2013-04-03 12:52:00,
2013-04-03 08:02:00,28.0,21.0,30.44,NNE,22,3.0,6.0,75,0.00,,,0.00,,2013-04-03 13:02:00,
2013-04-03 08:12:00,28.0,21.0,30.44,NNE,22,3.0,6.0,75,0.00,,,0.00,,2013-04-03 13:12:00,
2013-04-03 08:22:00,29.0,21.0,30.45,North,9,4.0,6.0,73,0.00,,,0.00,,2013-04-03 13:22:00,
2013-04-03 08:32:00,30.0,22.0,30.45,NNE,16,4.0,8.0,73,0.00,,,0.00,,2013-04-03 13:32:00,
2013-04-03 08:42:00,30.0,22.0,30.45,NNE,16,4.0,8.0,73,0.00,,,0.00,,2013-04-03 13:42:00,
2013-04-03 08:52:00,31.0,23.0,30.46,NNE,26,4.0,8.0,71,0.00,,,0.00,,2013-04-03 13:52:00,
2013-04-03 09:02:00,32.0,22.0,30.46,NE,51,5.0,8.0,66,0.00,,,0.00,,2013-04-03 14:02:00,
2013-04-03 09:12:00,32.0,22.0,30.46,NE,51,5.0,8.0,66,0.00,,,0.00,,2013-04-03 14:12:00,
2013-04-03 09:22:00,34.0,23.0,30.46,NNE,15,5.0,9.0,64,0.00,,,0.00,,2013-04-03 14:22:00,
2013-04-03 09:32:00,36.0,23.0,30.46,ENE,61,4.0,9.0,59,0.00,,,0.00,,2013-04-03 14:32:00,
2013-04-03 09:42:00,36.0,23.0,30.46,ENE,61,4.0,9.0,59,0.00,,,0.00,,2013-04-03 14:42:00,
2013-04-03 09:52:00,37.0,21.0,30.46,East,83,6.0,10.0,53,0.00,,,0.00,,2013-04-03 14:52:00,
2013-04-03 10:02:00,37.0,20.0,30.47,NE,48,6.0,12.0,49,0.00,,,0.00,,2013-04-03 15:02:00,
2013-04-03 10:12:00,37.0,20.0,30.47,NE,48,6.0,12.0,49,0.00,,,0.00,,2013-04-03 15:12:00,
2013-04-03 10:23:00,38.0,20.0,30.47,East,100,7.0,11.0,47,0.00,,,0.00,,2013-04-03 15:23:00,
2013-04-03 10:33:00,39.0,22.0,30.47,East,100,5.0,13.0,50,0.00,,,0.00,,2013-04-03 15:33:00,
2013-04-03 10:42:00,39.0,22.0,30.47,East,100,5.0,13.0,50,0.00,,,0.00,,2013-04-03 15:42:00,
2013-04-03 10:53:00,39.0,22.0,30.46,East,100,6.0,11.0,50,0.00,,,0.00,,2013-04-03 15:53:00,
2013-04-03 11:03:00,39.0,21.0,30.46,ESE,106,7.0,13.0,48,0.00,,,0.00,,2013-04-03 16:03:00,
2013-04-03 11:12:00,39.0,21.0,30.46,ESE,106,7.0,13.0,48,0.00,,,0.00,,2013-04-03 16:12:00,
2013-04-03 11:24:00,40.0,21.0,30.46,ENE,59,7.0,11.0,46,0.00,,,0.00,,2013-04-03 16:24:00,
2013-04-03 11:32:00,41.0,21.0,30.46,ENE,67,4.0,11.0,45,0.00,,,0.00,,2013-04-03 16:32:00,
2013-04-03 11:43:00,41.0,21.0,30.46,ENE,67,4.0,11.0,45,0.00,,,0.00,,2013-04-03 16:43:00,
2013-04-03 11:53:00,41.0,20.0,30.46,East,98,5.0,10.0,43,0.00,,,0.00,,2013-04-03 16:53:00,
2013-04-03 12:03:00,41.0,19.0,30.45,NNW,341,5.0,12.0,41,0.00,,,0.00,,2013-04-03 17:03:00,
2013-04-03 12:13:00,41.0,19.0,30.45,NNW,341,5.0,12.0,41,0.00,,,0.00,,2013-04-03 17:13:00,
2013-04-03 12:23:00,42.0,19.0,30.45,NNW,340,3.0,12.0,40,0.00,,,0.00,,2013-04-03 17:23:00,
2013-04-03 12:33:00,43.0,24.0,30.45,ENE,73,5.0,11.0,46,0.00,,,0.00,,2013-04-03 17:33:00,
2013-04-03 12:45:00,43.0,24.0,30.45,ENE,73,5.0,11.0,46,0.00,,,0.00,,2013-04-03 17:45:00,
2013-04-03 12:54:00,43.0,22.0,30.44,ENE,71,8.0,13.0,42,0.00,,,0.00,,2013-04-03 17:54:00,
2013-04-03 13:02:00,43.0,19.0,30.43,ENE,70,5.0,13.0,38,0.00,,,0.00,,2013-04-03 18:02:00,
2013-04-03 13:12:00,43.0,19.0,30.43,ENE,70,5.0,13.0,38,0.00,,,0.00,,2013-04-03 18:12:00,
2013-04-03 13:22:00,44.0,21.0,30.42,ENE,63,6.0,10.0,40,0.00,,,0.00,,2013-04-03 18:22:00,
2013-04-03 13:33:00,44.0,21.0,30.42,ENE,58,7.0,16.0,40,0.00,,,0.00,,2013-04-03 18:33:00,
2013-04-03 13:42:00,44.0,21.0,30.42,ENE,58,7.0,16.0,40,0.00,,,0.00,,2013-04-03 18:42:00,
2013-04-03 13:52:00,45.0,21.0,30.41,NE,40,8.0,17.0,38,0.00,,,0.00,,2013-04-03 18:52:00,
2013-04-03 14:02:00,45.0,23.0,30.40,ENE,59,6.0,16.0,42,0.00,,,0.00,,2013-04-03 19:02:00,
2013-04-03 14:12:00,45.0,23.0,30.40,ENE,59,6.0,16.0,42,0.00,,,0.00,,2013-04-03 19:12:00,
2013-04-03 14:22:00,46.0,24.0,30.39,ENE,70,8.0,14.0,42,0.00,,,0.00,,2013-04-03 19:22:00,
2013-04-03 14:32:00,46.0,22.0,30.39,ENE,67,6.0,12.0,38,0.00,,,0.00,,2013-04-03 19:32:00,
2013-04-03 14:42:00,46.0,22.0,30.39,ENE,67,6.0,12.0,38,0.00,,,0.00,,2013-04-03 19:42:00,
2013-04-03 14:52:00,46.0,22.0,30.39,ENE,69,5.0,14.0,39,0.00,,,0.00,,2013-04-03 19:52:00,
2013-04-03 15:02:00,46.0,23.0,30.38,East,92,6.0,14.0,40,0.00,,,0.00,,2013-04-03 20:02:00,
2013-04-03 15:12:00,46.0,23.0,30.38,East,92,6.0,14.0,40,0.00,,,0.00,,2013-04-03 20:12:00,
2013-04-03 15:23:00,47.0,20.0,30.38,ENE,59,5.0,14.0,34,0.00,,,0.00,,2013-04-03 20:23:00,
2013-04-03 15:32:00,47.0,21.0,30.38,ESE,103,6.0,16.0,35,0.00,,,0.00,,2013-04-03 20:32:00,
2013-04-03 15:42:00,47.0,21.0,30.38,ESE,103,6.0,16.0,35,0.00,,,0.00,,2013-04-03 20:42:00,
2013-04-03 15:53:00,48.0,23.0,30.38,East,87,11.0,15.0,37,0.00,,,0.00,,2013-04-03 20:53:00,
2013-04-03 16:02:00,48.0,22.0,30.38,ESE,115,9.0,21.0,36,0.00,,,0.00,,2013-04-03 21:02:00,
2013-04-03 16:12:00,48.0,22.0,30.38,ESE,115,9.0,21.0,36,0.00,,,0.00,,2013-04-03 21:12:00,
2013-04-03 16:22:00,48.0,22.0,30.38,ENE,65,3.0,15.0,35,0.00,,,0.00,,2013-04-03 21:22:00,
2013-04-03 16:32:00,48.0,22.0,30.37,SE,136,5.0,11.0,35,0.00,,,0.00,,2013-04-03 21:32:00,
2013-04-03 16:42:00,48.0,22.0,30.37,SE,136,5.0,11.0,35,0.00,,,0.00,,2013-04-03 21:42:00,
2013-04-03 16:52:00,48.0,21.0,30.37,East,96,8.0,15.0,34,0.00,,,0.00,,2013-04-03 21:52:00,
2013-04-03 17:02:00,48.0,22.0,30.37,ENE,57,7.0,14.0,35,0.00,,,0.00,,2013-04-03 22:02:00,
2013-04-03 17:12:00,48.0,22.0,30.37,ENE,57,7.0,14.0,35,0.00,,,0.00,,2013-04-03 22:12:00,
2013-04-03 17:22:00,48.0,21.0,30.37,East,88,6.0,12.0,34,0.00,,,0.00,,2013-04-03 22:22:00,
2013-04-03 17:32:00,48.0,21.0,30.36,NE,38,3.0,11.0,34,0.00,,,0.00,,2013-04-03 22:32:00,
2013-04-03 17:42:00,48.0,21.0,30.36,NE,38,3.0,11.0,34,0.00,,,0.00,,2013-04-03 22:42:00,
2013-04-03 17:52:00,48.0,22.0,30.36,SE,126,7.0,15.0,36,0.00,,,0.00,,2013-04-03 22:52:00,
2013-04-03 18:02:00,47.0,23.0,30.36,ESE,103,9.0,14.0,38,0.00,,,0.00,,2013-04-03 23:02:00,
2013-04-03 18:12:00,47.0,23.0,30.36,ESE,103,9.0,14.0,38,0.00,,,0.00,,2013-04-03 23:12:00,
2013-04-03 18:22:00,47.0,22.0,30.36,East,86,6.0,9.0,37,0.00,,,0.00,,2013-04-03 23:22:00,
2013-04-03 18:32:00,46.0,23.0,30.35,East,98,7.0,12.0,40,0.00,,,0.00,,2013-04-03 23:32:00,
2013-04-03 18:42:00,46.0,23.0,30.35,East,98,7.0,12.0,40,0.00,,,0.00,,2013-04-03 23:42:00,
2013-04-03 18:54:00,45.0,23.0,30.35,East,98,5.0,8.0,41,0.00,,,0.00,,2013-04-03 23:54:00,
2013-04-03 19:02:00,45.0,23.0,30.35,East,98,5.0,8.0,41,0.00,,,0.00,,2013-04-04 00:02:00,
2013-04-03 19:12:00,45.0,23.0,30.35,East,98,5.0,8.0,41,0.00,,,0.00,,2013-04-04 00:12:00,
2013-04-03 19:22:00,44.0,23.0,30.35,East,80,2.0,6.0,44,0.00,,,0.00,,2013-04-04 00:22:00,
2013-04-03 19:32:00,43.0,23.0,30.35,NE,56,2.0,4.0,45,0.00,,,0.00,,2013-04-04 00:32:00,
2013-04-03 19:43:00,43.0,23.0,30.35,NE,56,2.0,4.0,45,0.00,,,0.00,,2013-04-04 00:43:00,
2013-04-03 19:52:00,41.0,23.0,30.35,ENE,63,2.0,4.0,49,0.00,,,0.00,,2013-04-04 00:52:00,
2013-04-03 20:02:00,40.0,23.0,30.35,ENE,57,2.0,4.0,51,0.00,,,0.00,,2013-04-04 01:02:00,
2013-04-03 20:12:00,40.0,23.0,30.35,ENE,57,2.0,4.0,51,0.00,,,0.00,,2013-04-04 01:12:00,
2013-04-03 20:22:00,39.0,24.0,30.34,ENE,67,1.0,4.0,54,0.00,,,0.00,,2013-04-04 01:22:00,
2013-04-03 20:32:00,38.0,23.0,30.34,ENE,78,1.0,4.0,54,0.00,,,0.00,,2013-04-04 01:32:00,
2013-04-03 20:43:00,38.0,23.0,30.34,ENE,78,1.0,4.0,54,0.00,,,0.00,,2013-04-04 01:43:00,
2013-04-03 20:52:00,38.0,24.0,30.34,East,94,0.0,3.0,56,0.00,,,0.00,,2013-04-04 01:52:00,
2013-04-03 21:02:00,37.0,24.0,30.35,East,94,0.0,2.0,58,0.00,,,0.00,,2013-04-04 02:02:00,
2013-04-03 21:12:00,37.0,24.0,30.35,East,94,0.0,2.0,58,0.00,,,0.00,,2013-04-04 02:12:00,
2013-04-03 21:22:00,36.0,23.0,30.34,East,94,0.0,0.0,59,0.00,,,0.00,,2013-04-04 02:22:00,
2013-04-03 21:32:00,36.0,23.0,30.35,East,94,0.0,0.0,59,0.00,,,0.00,,2013-04-04 02:32:00,
2013-04-03 21:42:00,36.0,23.0,30.35,East,94,0.0,0.0,59,0.00,,,0.00,,2013-04-04 02:42:00,
2013-04-03 21:52:00,36.0,23.0,30.35,East,94,0.0,0.0,59,0.00,,,0.00,,2013-04-04 02:52:00,
2013-04-03 22:02:00,35.0,23.0,30.35,East,94,0.0,0.0,62,0.00,,,0.00,,2013-04-04 03:02:00,
2013-04-03 22:12:00,35.0,23.0,30.35,East,94,0.0,0.0,62,0.00,,,0.00,,2013-04-04 03:12:00,
2013-04-03 22:22:00,34.0,22.0,30.35,East,94,0.0,0.0,60,0.00,,,0.00,,2013-04-04 03:22:00,
2013-04-03 22:33:00,34.0,22.0,30.35,East,94,0.0,0.0,60,0.00,,,0.00,,2013-04-04 03:33:00,
2013-04-03 22:43:00,34.0,22.0,30.35,East,94,0.0,0.0,60,0.00,,,0.00,,2013-04-04 03:43:00,
2013-04-03 22:53:00,35.0,22.0,30.35,East,94,0.0,0.0,59,0.00,,,0.00,,2013-04-04 03:53:00,
2013-04-03 23:03:00,35.0,23.0,30.35,East,94,0.0,1.0,60,0.00,,,0.00,,2013-04-04 04:03:00,
2013-04-03 23:12:00,35.0,23.0,30.35,East,94,0.0,1.0,60,0.00,,,0.00,,2013-04-04 04:12:00,
2013-04-03 23:23:00,35.0,23.0,30.35,East,94,0.0,0.0,60,0.00,,,0.00,,2013-04-04 04:23:00,
2013-04-03 23:33:00,35.0,23.0,30.35,East,94,0.0,1.0,61,0.00,,,0.00,,2013-04-04 04:33:00,
2013-04-03 23:43:00,35.0,23.0,30.35,East,94,0.0,1.0,61,0.00,,,0.00,,2013-04-04 04:43:00,
2013-04-03 23:53:00,34.0,23.0,30.34,East,94,0.0,1.0,63,0.00,,,0.00,,2013-04-04 04:53:00,